This demonstration page uses our WeatherBlox Daily Observations layout. Learn more.

Hourly Observations for March 6, 2020

Temp ( °F °C ) Dew Point ( °F °C ) Humidity (%) Winds ( mph kmh ) Pressure ( in mb ) Visibility ( mi km ) Precip ( " mm )
12:15 am 00:15 Clear 39 4 30 -1 70 70 S 3 6 30.04 1017 10 16.0934 0 0
12:35 am 00:35 Clear 37 3 30 -1 75 75 S 6 9 30.03 1017 10 16.0934 0 0
12:55 am 00:55 Clear 39 4 30 -1 70 70 S 7 11 30.02 1016 10 16.0934 0 0
1:15 am 01:15 Clear 41 5 30 -1 66 66 SSE 14 22 29.98 1015 10 16.0934 0 0
1:35 am 01:35 Clear 37 3 30 -1 75 75 SSW 5 7 29.99 1015 10 16.0934 0 0
1:55 am 01:55 Clear 37 3 30 -1 75 75 Calm 29.98 1015 10 16.0934 0 0
2:15 am 02:15 Clear 37 3 30 -1 75 75 SSW 3 6 29.96 1014 10 16.0934 0 0
2:35 am 02:35 Clear 36 2 30 -1 81 81 SSW 5 7 29.95 1014 10 16.0934 0 0
2:55 am 02:55 Clear 36 2 30 -1 81 81 SSW 3 6 29.94 1014 10 16.0934 0 0
3:15 am 03:15 Clear 36 2 30 -1 81 81 S 3 6 29.93 1013 10 16.0934 0 0
3:35 am 03:35 Clear 36 2 30 -1 81 81 S 5 7 29.92 1013 10 16.0934 0 0
3:55 am 03:55 Clear 32 0 30 -1 93 93 Calm 29.91 1013 10 16.0934 0 0
7:15 am 07:15 Cloudy 36 2 32 0 87 87 Calm 29.91 1013 10 16.0934 0 0
7:35 am 07:35 Cloudy 34 1 32 0 93 93 Calm 29.91 1013 10 16.0934 0 0
7:55 am 07:55 Cloudy 36 2 32 0 87 87 Calm 29.91 1013 10 16.0934 0 0
8:15 am 08:15 Cloudy 36 2 32 0 87 87 Calm 29.9 1012 10 16.0934 0 0
8:35 am 08:35 Cloudy 36 2 32 0 87 87 Calm 29.9 1012 10 16.0934 0 0
8:55 am 08:55 Cloudy 37 3 34 1 87 87 Calm 29.89 1012 10 16.0934 0 0
9:15 am 09:15 Mostly Cloudy 39 4 34 1 81 81 Calm 29.88 1012 10 16.0934 0 0
9:35 am 09:35 Partly Cloudy 41 5 34 1 76 76 N 3 6 29.86 1011 10 16.0934 0 0
9:55 am 09:55 Mostly Cloudy 43 6 34 1 71 71 N 5 7 29.86 1011 10 16.0934 0 0
10:15 am 10:15 Cloudy 43 6 34 1 71 71 NNE 6 9 29.86 1011 10 16.0934 0 0
10:35 am 10:35 Cloudy 46 8 34 1 62 62 NNW 25 41 29.86 1011 10 16.0934 0 0
10:55 am 10:55 Cloudy 46 8 34 1 62 62 N 28 44 29.86 1011 10 16.0934 0 0
11:15 am 11:15 Cloudy 46 8 34 1 62 62 NNE 10 17 29.85 1011 10 16.0934 0 0
11:35 am 11:35 Cloudy 46 8 34 1 62 62 N 9 15 29.84 1010 10 16.0934 0 0
11:55 am 11:55 Cloudy 48 9 34 1 58 58 N 9 15 29.85 1011 10 16.0934 0 0
12:15 pm 12:15 Partly Cloudy 50 10 34 1 54 54 N 20 31 29.85 1011 10 16.0934 0 0
12:35 pm 12:35 Partly Cloudy 50 10 34 1 54 54 N 20 31 29.85 1011 10 16.0934 0 0
12:55 pm 12:55 Partly Cloudy 50 10 34 1 54 54 N 18 30 29.84 1010 10 16.0934 0 0
1:15 pm 13:15 Partly Cloudy 50 10 34 1 54 54 NNW 16 26 29.83 1010 10 16.0934 0 0
1:35 pm 13:35 Mostly Cloudy 50 10 34 1 54 54 N 13 20 29.81 1009 10 16.0934 0 0
1:55 pm 13:55 Cloudy 48 9 34 1 58 58 N 9 15 29.82 1010 10 16.0934 0 0
2:15 pm 14:15 Cloudy 48 9 36 2 62 62 N 7 11 29.81 1009 10 16.0934 0 0
2:35 pm 14:35 Cloudy 48 9 34 1 58 58 NNW 21 33 29.82 1010 10 16.0934 0 0
2:55 pm 14:55 Cloudy 46 8 36 2 66 66 NW 10 17 29.82 1010 10 16.0934 0 0
3:15 pm 15:15 Cloudy with Nearby Thunderstorms 48 9 36 2 62 62 N 12 19 29.84 1010 10 16.0934 0 0
3:35 pm 15:35 Cloudy 43 6 37 3 81 81 WNW 8 13 29.85 1011 7 11.26538 0.01 0.254
3:55 pm 15:55 Cloudy 45 7 39 4 81 81 WNW 7 11 29.84 1011 10 16.0934 0.01 0.254
4:15 pm 16:15 Cloudy with Thunderstorms 45 7 37 3 76 76 WNW 20 31 29.86 1011 10 16.0934 0 0
4:35 pm 16:35 Cloudy 43 6 36 2 76 76 WNW 18 30 29.86 1011 10 16.0934 0 0
4:55 pm 16:55 Cloudy 43 6 36 2 76 76 NW 14 22 29.87 1012 10 16.0934 0 0
5:15 pm 17:15 Cloudy 43 6 34 1 71 71 NW 16 26 29.88 1012 10 16.0934 0 0
5:35 pm 17:35 Cloudy 45 7 34 1 66 66 NW 16 26 29.89 1012 10 16.0934 0 0
5:55 pm 17:55 Cloudy 43 6 34 1 71 71 NNW 20 31 29.9 1013 10 16.0934 0 0
6:15 pm 18:15 Cloudy 43 6 32 0 66 66 NW 18 30 29.91 1013 10 16.0934 0 0
6:35 pm 18:35 Cloudy 43 6 32 0 66 66 NW 14 22 29.92 1013 10 16.0934 0 0
6:55 pm 18:55 Cloudy 43 6 32 0 66 66 NW 15 24 29.93 1014 10 16.0934 0 0
7:15 pm 19:15 Partly Cloudy 43 6 32 0 66 66 NW 17 28 29.94 1014 10 16.0934 0 0
7:35 pm 19:35 Mostly Cloudy 43 6 32 0 66 66 NNW 15 24 29.94 1014 10 16.0934 0 0
7:55 pm 19:55 Partly Cloudy 43 6 32 0 66 66 NNW 12 19 29.95 1014 10 16.0934 0 0
8:15 pm 20:15 Clear 43 6 32 0 66 66 NNW 14 22 29.96 1015 10 16.0934 0 0
8:35 pm 20:35 Clear 41 5 32 0 70 70 NNW 10 17 29.96 1015 10 16.0934 0 0
8:55 pm 20:55 Clear 41 5 32 0 70 70 NNW 15 24 29.97 1015 10 16.0934 0 0
9:15 pm 21:15 Partly Cloudy 41 5 32 0 70 70 NW 12 19 29.98 1015 10 16.0934 0 0
9:35 pm 21:35 Partly Cloudy 41 5 32 0 70 70 NW 14 22 29.98 1015 10 16.0934 0 0
9:55 pm 21:55 Clear 41 5 32 0 70 70 NNW 14 22 29.99 1016 10 16.0934 0 0
10:15 pm 22:15 Partly Cloudy 41 5 32 0 70 70 NNW 15 24 30 1016 10 16.0934 0 0
10:35 pm 22:35 Mostly Cloudy 41 5 30 -1 66 66 NNW 23 37 30 1016 10 16.0934 0 0
10:55 pm 22:55 Cloudy 41 5 30 -1 66 66 NNW 20 31 30.02 1017 10 16.0934 0 0
11:15 pm 23:15 Cloudy 41 5 30 -1 66 66 NNW 22 35 30.03 1017 10 16.0934 0 0
11:35 pm 23:35 Cloudy 41 5 32 0 70 70 NNW 25 41 30.03 1017 10 16.0934 0 0
11:55 pm 23:55 Cloudy 41 5 32 0 70 70 NNW 22 35 30.04 1017 10 16.0934 0 0

Powered by AerisWeather